Location: Caltech
(34.1382°N, 118.1253°W)
Time: 01:26:46
(UTC-07:00)

Iridium 3 - Visible Passes

Search period start: 24 August 2016 00:00
Search period end: 03 September 2016 00:00
Orbit: 776 x 779 km, 86.4° (Epoch: 23 August)

Date Brightness Start Highest point End Pass type
(mag) Time Alt. Az. Time Alt. Az. Time Alt. Az.
24 Aug 5.4 04:11:17 73° SSW 04:11:48 84° W 04:17:02 10° N visible
25 Aug 6.2 03:38:19 50° E 03:38:20 50° E 03:43:22 10° NNE visible
25 Aug 7.1 05:18:49 15° W 05:19:19 15° WNW 05:22:15 10° NW visible
26 Aug 7.4 03:05:19 26° ENE 03:05:19 26° ENE 03:09:15 10° NNE visible
26 Aug 6.5 04:45:49 28° WNW 04:45:49 28° WNW 04:50:03 10° NNW visible
27 Aug 8.2 02:32:18 13° ENE 02:32:18 13° ENE 02:34:10 10° NE visible
27 Aug 5.9 04:12:48 49° NW 04:12:48 49° NW 04:17:02 10° N visible
28 Aug 6.2 03:39:46 49° NNE 03:39:46 49° NNE 03:43:36 10° N visible
29 Aug 7.2 03:06:42 30° NE 03:06:42 30° NE 03:09:47 10° NNE visible
29 Aug 7.2 04:47:12 18° WNW 04:47:12 18° WNW 04:49:31 10° NNW visible
30 Aug 8.1 02:33:38 16° NE 02:33:38 16° NE 02:35:24 10° NE visible
30 Aug 6.8 04:14:07 27° NW 04:14:07 27° NW 04:16:54 10° NNW visible
31 Aug 6.9 03:41:01 31° N 03:41:01 31° N 03:43:42 10° N visible
01 Sep 7.5 03:07:55 25° NNE 03:07:55 25° NNE 03:10:07 10° N visible
01 Sep 7.8 04:48:24 10° NW 04:48:24 10° NW 04:48:25 10° NW visible
02 Sep 8.1 02:34:47 16° NE 02:34:47 16° NE 02:36:06 10° NNE visible
02 Sep 7.5 04:15:16 16° NW 04:15:16 16° NW 04:16:33 10° NNW visible
